Wind_Speed
6 6 6 6 6 6 6 6 7 7 6 6 7 6 7 7 7 7 7 7 7 7 8 8 9 9 10 10 11 10 11 11 12 13 14 14 15 15 15 15 14 15 15
7 7 7 6 6 6 6 7 7 7 7 7 8 7 7 8 8 8 8 8 8 7 7 8 8 9 10 10 10 10 10 11 12 13 13 15 15 15 15 14 14 14 14
7 7 7 7 7 7 7 7 7 7 7 8 8 8 8 9 9 9 8 8 8 8 8 8 9 9 10 10 10 10 11 11 11 12 13 14 15 15 15 15 15 14 14
8 7 7 7 7 6 6 7 7 6 7 7 7 8 8 9 9 9 9 8 8 8 9 9 9 10 10 10 10 11 11 11 11 11 12 13 14 14 15 15 15 15 15
8 8 7 7 7 7 7 7 6 6 7 7 7 7 8 8 9 8 8 8 8 9 9 9 10 10 10 10 10 10 11 11 11 11 12 12 13 13 14 14 15 15 16
8 7 7 8 8 7 7 7 7 7 7 7 7 7 7 8 8 8 8 8 9 9 9 9 10 10 10 9 10 10 10 10 11 11 11 11 12 13 14 15 16 16 16
8 7 7 8 7 8 7 7 7 7 7 8 8 8 8 8 8 8 8 9 9 9 10 10 10 9 10 10 10 10 10 10 10 11 11 11 13 14 15 16 16 16 17
9 8 8 8 8 8 8 8 8 8 8 8 8 8 8 8 9 8 9 9 10 10 10 10 10 10 10 10 10 10 11 11 11 12 12 13 13 14 16 16 17 17 17
9 8 8 8 8 9 9 9 9 8 8 8 8 9 9 9 9 9 9 9 10 11 11 11 11 10 11 11 11 11 12 12 12 12 13 14 14 15 16 17 17 18 18
9 9 9 9 9 9 9 9 9 9 9 9 9 10 10 10 10 10 10 11 11 12 12 12 11 12 12 12 12 12 13 13 13 13 14 14 15 15 16 16 17 18 18
9 9 9 9 10 10 10 10 10 10 10 10 10 10 11 11 10 10 11 12 12 13 13 13 13 13 13 13 13 13 13 14 14 14 15 15 15 15 16 16 17 18 19
10 9 9 10 10 10 10 11 11 11 11 11 11 11 11 11 11 11 12 12 13 13 13 13 13 13 13 13 13 14 14 14 14 15 15 16 16 16 16 17 17 19 20
11 10 11 11 10 11 11 11 12 12 12 12 12 12 12 12 12 12 13 13 14 14 14 14 14 14 14 15 14 14 14 15 15 15 16 16 17 17 17 18 19 19 20
11 11 12 12 12 13 13 13 13 13 13 13 13 13 13 13 13 14 14 15 15 15 15 15 15 15 16 16 15 15 15 16 17 17 17 17 18 18 18 19 20 20 20
12 12 12 13 13 13 13 13 13 13 13 13 13 14 14 14 15 15 15 16 16 16 16 16 16 16 17 17 17 17 18 18 18 18 19 19 19 19 19 19 20 20 20
13 13 13 13 13 13 13 13 13 13 14 14 15 15 16 16 16 16 17 17 18 17 17 17 18 18 19 19 19 19 20 19 19 19 19 19 19 19 19 20 20 21 21
13 13 13 13 13 13 13 14 14 14 14 15 16 16 17 17 17 18 18 19 19 19 19 18 18 19 20 20 21 21 21 21 20 20 20 20 20 20 20 21 21 22 22
13 14 14 14 14 14 14 15 15 16 16 16 16 17 17 18 18 19 20 19 20 20 20 19 19 20 20 21 21 22 22 22 22 21 21 21 21 21 22 22 23 24 24
14 15 15 15 15 15 15 16 16 16 17 17 17 17 18 19 19 20 20 20 21 21 21 21 21 21 22 22 22 23 23 23 23 23 23 23 23 24 24 25 26 26 26
15 15 15 15 15 15 16 16 16 17 18 18 18 18 19 19 20 20 20 21 22 22 23 23 23 23 23 24 24 24 24 24 25 26 26 26 26 26 27 28 28 28 29
15 16 15 15 15 16 16 17 17 18 19 19 18 19 19 19 20 21 21 22 22 23 24 24 24 25 25 25 25 26 26 26 27 27 28 28 28 29 29 30 31 31 32
15 16 16 16 16 17 17 18 18 19 19 19 19 20 20 21 22 22 22 23 24 24 25 25 26 26 27 27 26 27 27 27 28 29 30 30 31 32 32 33 33 34 35
16 16 17 17 18 19 20 20 20 20 20 20 21 21 22 22 23 24 24 25 26 26 26 27 28 28 28 28 28 29 29 29 30 30 31 31 33 34 35 35 35 36 36
18 18 19 19 20 21 21 21 21 21 21 22 22 23 23 24 25 26 27 27 27 28 28 29 29 29 29 29 30 30 31 31 32 32 33 33 34 35 36 36 36 37 38
20 20 20 21 21 22 22 22 23 23 23 24 24 25 25 26 27 28 29 29 29 29 30 30 31 31 31 31 32 32 33 33 33 33 34 35 35 35 36 36 37 38 39
21 21 22 22 23 23 23 24 24 25 25 26 26 27 27 28 29 29 30 30 30 31 31 31 32 32 32 33 33 34 35 35 35 35 35 36 36 36 36 37 38 38 39
Wind_Direction
295 293 296 299 302 305 306 306 309 304 296 288 287 285 284 285 285 282 283 283 284 284 283 284 282 284 283 281 278 272 268 262 260 258 258 256 254 253 251 253 254 252 254
291 293 296 295 300 304 302 303 305 305 298 289 287 283 285 288 284 281 283 282 280 282 284 287 286 285 285 283 280 276 271 267 263 261 260 258 256 254 255 253 253 256 257
289 291 295 296 298 302 302 301 301 299 296 293 290 286 284 284 282 281 283 283 281 285 289 292 289 288 287 283 277 274 271 270 267 266 264 262 260 257 257 259 259 258 257
285 284 285 290 293 294 300 304 304 302 299 297 293 291 289 284 282 281 282 282 282 284 289 291 287 286 286 285 277 274 271 270 271 270 267 264 261 258 256 258 259 261 260
285 283 281 284 287 288 294 300 303 302 298 297 297 296 294 292 290 284 282 281 280 282 286 288 292 290 288 285 282 275 273 271 273 272 268 264 261 259 258 259 260 261 261
287 283 282 284 285 287 292 298 304 300 298 297 300 300 301 300 293 286 282 282 283 284 286 286 290 291 289 287 282 281 280 279 277 276 272 268 264 261 260 261 261 262 262
281 280 281 283 285 286 289 290 293 294 296 294 295 296 298 300 295 287 284 283 282 283 286 289 292 293 292 291 288 285 285 285 283 280 276 273 270 267 265 263 263 263 263
276 275 277 280 282 285 289 290 291 291 291 292 292 294 297 299 298 296 293 290 288 288 288 291 293 293 294 292 290 291 290 289 287 285 282 278 275 271 269 266 265 264 263
275 273 276 278 281 284 286 289 292 293 292 293 292 293 295 296 296 295 294 292 294 294 293 294 294 292 290 289 290 290 289 288 287 285 283 280 278 277 274 270 267 265 264
274 274 274 276 280 282 286 287 287 287 288 292 294 294 294 294 292 293 292 292 294 294 292 293 293 293 290 287 288 288 288 288 287 287 285 283 281 279 277 274 270 267 266
272 273 274 277 282 284 286 285 282 284 288 292 293 293 295 293 291 291 291 292 295 296 293 291 291 292 291 290 289 289 288 288 288 288 287 286 284 281 280 278 273 271 269
276 276 276 277 277 281 284 286 285 284 288 290 291 293 294 294 293 293 292 292 293 295 295 295 292 292 289 290 289 290 291 291 290 290 290 289 285 283 282 282 281 277 274
277 277 277 276 275 277 281 285 284 287 288 288 291 291 291 294 293 294 294 293 295 295 295 293 291 290 288 288 289 288 290 291 292 292 292 291 287 284 281 281 281 280 278
278 279 279 278 279 279 279 282 282 286 286 289 290 292 292 291 291 292 293 293 295 296 298 294 291 289 289 290 288 288 288 289 290 291 291 292 290 287 283 282 281 280 279
279 282 283 280 279 279 279 279 281 283 285 287 289 290 292 292 291 292 292 293 295 296 295 293 292 290 288 288 287 287 289 289 289 289 290 290 288 289 287 284 283 280 278
277 279 281 281 281 279 277 278 280 282 285 287 288 289 290 290 292 293 293 294 294 294 292 291 290 289 288 287 288 289 290 289 289 289 288 288 287 287 286 286 284 283 281
275 278 278 281 279 277 277 278 278 282 284 287 289 290 291 292 291 291 293 293 294 294 293 291 291 289 287 287 288 288 289 290 289 289 289 288 287 287 287 287 286 285 283
275 277 278 278 278 278 278 279 280 282 284 287 289 290 291 291 290 291 292 292 294 295 295 294 292 290 288 289 290 289 288 288 288 288 288 288 288 287 287 288 288 287 285
278 280 279 278 278 280 282 283 284 286 287 288 289 289 290 291 291 292 292 292 293 293 293 294 294 293 291 290 290 290 288 287 288 287 287 288 288 287 287 288 288 286 285
279 280 280 278 278 281 284 285 286 288 289 289 289 290 292 293 293 293 293 293 293 292 292 293 293 293 292 291 290 289 288 287 287 287 287 287 287 287 287 288 288 287 286
279 280 281 280 281 284 286 287 287 288 290 290 291 292 293 294 294 293 293 293 293 292 292 293 292 292 292 291 290 289 288 287 286 286 286 286 287 287 288 288 288 287 287
278 279 280 280 282 284 286 288 289 289 291 290 291 292 293 293 294 294 294 294 294 293 293 293 292 292 292 291 290 290 289 289 288 287 286 286 287 287 288 288 288 288 287
278 279 280 281 283 284 285 285 285 287 289 289 290 291 292 294 295 295 294 295 295 294 294 294 293 292 291 290 289 289 289 289 288 288 286 286 286 287 287 288 288 288 288
278 278 280 281 283 284 284 284 284 285 287 287 289 291 294 296 296 295 296 296 296 295 294 294 293 292 291 289 289 289 289 289 288 288 288 288 288 288 287 287 288 288 289
280 279 279 280 282 283 284 284 284 284 285 287 290 291 294 295 296 295 296 296 296 295 294 294 294 294 293 291 290 289 289 288 288 288 289 289 290 289 288 288 288 289 289
280 280 280 280 282 283 283 283 284 285 286 288 289 291 292 293 294 295 295 295 295 295 294 294 294 294 294 293 291 290 289 289 288 288 288 289 290 290 289 289 289 289 289
Height
5872 5871 5871 5871 5870 5869 5869 5868 5868 5867 5867 5867 5866 5866 5866 5865 5865 5865 5865 5864 5864 5864 5863 5863 5863 5862 5862 5861 5861 5860 5860 5860 5860 5860 5860 5861 5861 5862 5862 5863 5864 5865 5865
5870 5870 5870 5869 5869 5868 5868 5867 5867 5866 5866 5865 5865 5865 5864 5864 5864 5863 5863 5863 5862 5862 5862 5861 5861 5860 5860 5859 5859 5858 5858 5857 5857 5857 5856 5857 5857 5858 5858 5860 5861 5862 5862
5869 5869 5868 5868 5867 5867 5866 5866 5865 5865 5864 5864 5863 5863 5863 5862 5862 5862 5861 5861 5861 5860 5860 5859 5859 5858 5858 5857 5857 5856 5855 5855 5854 5853 5853 5852 5853 5853 5855 5856 5857 5858 5859
5867 5867 5867 5866 5866 5865 5865 5864 5864 5863 5863 5862 5862 5861 5861 5860 5860 5860 5859 5859 5859 5858 5858 5857 5857 5856 5855 5855 5854 5854 5853 5852 5851 5850 5848 5848 5848 5849 5851 5853 5854 5855 5856
5865 5865 5865 5865 5864 5864 5863 5863 5862 5862 5861 5861 5860 5860 5859 5859 5858 5858 5857 5857 5857 5856 5856 5855 5855 5854 5853 5852 5852 5851 5851 5850 5849 5847 5845 5844 5845 5846 5847 5849 5850 5851 5852
5864 5864 5863 5863 5863 5862 5862 5861 5861 5860 5860 5859 5859 5858 5857 5857 5856 5856 5855 5855 5855 5854 5854 5853 5853 5852 5851 5850 5850 5849 5848 5847 5846 5845 5844 5843 5843 5844 5845 5846 5847 5848 5848
5862 5862 5861 5861 5861 5861 5860 5860 5859 5859 5858 5858 5857 5857 5856 5855 5855 5854 5853 5853 5852 5852 5851 5851 5850 5850 5849 5848 5847 5847 5846 5845 5844 5843 5842 5841 5841 5841 5842 5843 5843 5844 5844
5860 5860 5859 5859 5859 5859 5859 5858 5858 5857 5857 5856 5856 5855 5854 5854 5853 5852 5852 5851 5850 5850 5849 5848 5848 5847 5847 5846 5845 5844 5843 5842 5841 5841 5840 5839 5839 5839 5839 5839 5839 5840 5840
5858 5858 5857 5857 5857 5857 5857 5856 5856 5855 5855 5854 5854 5853 5852 5852 5851 5850 5849 5849 5848 5847 5847 5846 5845 5845 5844 5843 5843 5842 5841 5840 5839 5838 5837 5836 5835 5835 5835 5835 5835 5835 5835
5856 5855 5855 5855 5855 5855 5854 5854 5853 5853 5853 5852 5851 5851 5850 5849 5849 5848 5848 5847 5846 5845 5844 5843 5843 5842 5841 5840 5840 5839 5838 5837 5836 5835 5834 5833 5832 5831 5831 5831 5830 5831 5831
5853 5853 5853 5853 5852 5852 5852 5851 5851 5850 5850 5849 5849 5848 5848 5847 5846 5846 5845 5844 5843 5842 5841 5840 5840 5839 5838 5837 5836 5835 5834 5834 5833 5832 5831 5830 5828 5828 5827 5826 5826 5826 5826
5851 5851 5850 5850 5850 5850 5849 5849 5848 5848 5847 5847 5846 5846 5845 5844 5843 5843 5842 5841 5840 5839 5838 5838 5836 5836 5835 5834 5832 5831 5831 5830 5829 5828 5827 5826 5824 5824 5823 5822 5822 5821 5821
5848 5848 5848 5847 5847 5847 5846 5846 5846 5845 5844 5844 5844 5843 5842 5841 5840 5840 5839 5838 5837 5836 5835 5834 5833 5832 5831 5830 5829 5828 5827 5826 5825 5824 5822 5821 5820 5819 5818 5818 5817 5817 5816
5846 5845 5845 5845 5844 5844 5843 5843 5843 5842 5841 5841 5840 5840 5839 5838 5837 5836 5836 5835 5833 5832 5831 5830 5829 5828 5827 5826 5825 5824 5823 5822 5821 5819 5818 5817 5815 5814 5813 5813 5812 5812 5811
5843 5842 5842 5841 5841 5841 5840 5840 5839 5839 5838 5838 5837 5836 5836 5835 5834 5833 5832 5831 5830 5829 5828 5826 5825 5824 5823 5822 5821 5819 5818 5817 5816 5814 5813 5812 5810 5809 5809 5808 5807 5806 5805
5840 5839 5839 5838 5837 5837 5837 5836 5836 5835 5835 5834 5833 5833 5832 5831 5830 5829 5828 5827 5825 5824 5823 5822 5820 5819 5818 5817 5815 5814 5813 5812 5810 5809 5808 5806 5805 5804 5803 5802 5801 5800 5799
5836 5836 5835 5835 5834 5833 5833 5833 5832 5832 5831 5830 5829 5828 5827 5826 5825 5824 5823 5822 5821 5819 5818 5817 5815 5814 5812 5811 5810 5808 5807 5806 5804 5803 5802 5801 5799 5798 5797 5796 5795 5794 5793
5833 5832 5832 5831 5830 5830 5829 5829 5828 5828 5827 5826 5825 5824 5823 5822 5821 5819 5818 5817 5815 5814 5813 5811 5810 5808 5807 5805 5804 5802 5801 5799 5798 5797 5795 5794 5793 5792 5791 5790 5788 5787 5786
5829 5829 5828 5827 5827 5826 5825 5824 5824 5823 5822 5821 5820 5819 5818 5817 5816 5814 5813 5811 5810 5808 5807 5805 5804 5802 5800 5799 5797 5796 5794 5793 5791 5790 5789 5787 5786 5785 5783 5782 5781 5779 5778
5825 5824 5824 5823 5822 5822 5821 5820 5819 5819 5818 5817 5815 5814 5813 5812 5810 5809 5807 5806 5804 5802 5800 5799 5797 5796 5794 5792 5790 5789 5787 5785 5784 5782 5781 5780 5778 5777 5775 5774 5772 5771 5769
5821 5820 5819 5819 5818 5817 5817 5816 5815 5814 5813 5811 5810 5809 5808 5806 5805 5803 5801 5799 5798 5796 5794 5792 5790 5789 5787 5784 5783 5781 5779 5777 5776 5774 5773 5771 5769 5768 5766 5764 5763 5761 5759
5816 5815 5815 5814 5813 5812 5811 5810 5809 5808 5807 5806 5805 5803 5802 5800 5799 5797 5795 5793 5791 5789 5786 5784 5783 5781 5779 5776 5774 5772 5770 5769 5768 5766 5763 5762 5760 5759 5757 5755 5752 5750 5749
5811 5810 5810 5809 5808 5807 5806 5805 5804 5803 5802 5801 5799 5798 5796 5794 5792 5790 5788 5785 5783 5780 5779 5777 5774 5772 5770 5768 5766 5764 5762 5760 5758 5756 5754 5752 5750 5748 5746 5744 5742 5739 5737
5806 5805 5804 5803 5802 5801 5800 5799 5798 5797 5796 5794 5793 5791 5789 5787 5785 5783 5780 5778 5775 5773 5770 5768 5766 5763 5761 5759 5756 5754 5752 5750 5748 5746 5744 5742 5740 5737 5735 5732 5730 5728 5725
5800 5799 5798 5797 5796 5795 5793 5792 5791 5790 5789 5788 5786 5784 5782 5780 5778 5775 5773 5770 5768 5765 5762 5759 5756 5754 5751 5749 5746 5744 5742 5740 5738 5736 5733 5731 5728 5726 5723 5721 5718 5716 5713
5793 5793 5791 5790 5789 5788 5787 5785 5784 5783 5782 5780 5779 5776 5774 5772 5769 5766 5764 5761 5759 5756 5753 5750 5747 5744 5741 5738 5736 5733 5731 5728 5726 5725 5722 5719 5717 5714 5712 5710 5706 5703 5700